Weather History for KGMU - May, 2013

Change the Weather History Date:

Sunday, May 19, 2013

  Actual Average Record
Temperature  
Mean Temperature 70 °F -  
Max Temperature 75 °F 78 °F 90 °F (2000)
Min Temperature 66 °F 58 °F 45 °F (2002)
Cooling Degree Days 6    
Growing Degree Days 20 (Base 50)    
Moisture  
Dew Point 64 °F    
Average Humidity 82    
Maximum Humidity 96    
Minimum Humidity 65    
Precipitation  
Precipitation 0.18 in - - ()
Sea Level Pressure  
Sea Level Pressure 30.09 in    
Wind  
Wind Speed 3 mph (SSW)    
Max Wind Speed 9 mph    
Max Gust Speed -    
Visibility 9 miles    
Events Rain    
Averages and records for this station are not official NWS values.
T = Trace of Precipitation, MM = Missing Value Source: NWS Daily Summary

Daily Weather History Graph

Daily Weather History Graph

Search for Another Location

Airport or City:

Trip Planner

Search our weather history database for the weather conditions in past years. The results will help you decide how hot, cold, wet, or windy it might be!

Date:

Astronomy

May. 19, 2013 Rise Set
Actual Time 6:23 AM EDT 8:28 PM EDT
Civil Twilight 5:54 AM EDT 8:57 PM EDT
Nautical Twilight 5:20 AM EDT 9:31 PM EDT
Astronomical Twilight 4:43 AM EDT 10:09 PM EDT
Moon 2:45 PM EDT (5/19) 2:31 AM EDT (5/19)
Length of Visible Light 15h 02m
Length of Day
14h 05m
Waxing Gibbous, 65% of the Moon is Illuminated
May 19
Waxing Gibbous
May 25
Full
May 31
Last Quarter
Jun 8
New
Jun 16
First Quarter

Hourly Weather History & Observations

Time (EDT) Temp. Dew Point Humidity Pressure Visibility Wind Dir Wind Speed Gust Speed Precip Events Conditions
12:53 AM 68.0 °F 64.0 °F 87% 30.09 in 10.0 mi Calm Calm - N/A   Mostly Cloudy
1:17 AM 68.0 °F 62.6 °F 83% 30.10 in 10.0 mi Calm Calm - N/A   Overcast
1:53 AM 66.9 °F 63.0 °F 87% 30.08 in 10.0 mi South 4.6 mph - N/A   Overcast
2:30 AM 66.2 °F 64.4 °F 94% 30.09 in 9.0 mi South 5.8 mph - 0.00 in Rain Light Rain
2:48 AM 66.2 °F 64.4 °F 94% 30.09 in 10.0 mi SSE 4.6 mph - 0.00 in Rain Light Rain
2:53 AM 66.9 °F 64.0 °F 90% 30.07 in 10.0 mi SSE 5.8 mph - 0.00 in Rain Light Rain
3:53 AM 66.0 °F 64.0 °F 93% 30.06 in 10.0 mi SSE 3.5 mph - 0.05 in   Overcast
4:53 AM 66.0 °F 64.0 °F 93% 30.06 in 2.0 mi SE 4.6 mph - 0.12 in Rain Heavy Rain
5:02 AM 66.2 °F 64.4 °F 94% 30.09 in 8.0 mi SE 3.5 mph - 0.00 in Rain Light Rain
5:45 AM 66.2 °F 64.4 °F 94% 30.10 in 8.0 mi South 3.5 mph - 0.00 in   Overcast
5:53 AM 66.0 °F 64.9 °F 96% 30.07 in 8.0 mi South 5.8 mph - 0.00 in   Overcast
6:23 AM 66.2 °F 64.4 °F 94% 30.11 in 2.5 mi Calm Calm - N/A   Overcast
6:32 AM 66.2 °F 64.4 °F 94% 30.11 in 0.8 mi South 4.6 mph - N/A   Overcast
6:53 AM 66.0 °F 64.9 °F 96% 30.09 in 1.5 mi SSE 3.5 mph - N/A   Overcast
6:58 AM 66.2 °F 64.4 °F 94% 30.11 in 3.0 mi Calm Calm - N/A   Overcast
8:53 AM 66.9 °F 64.9 °F 93% 30.12 in 8.0 mi Calm Calm - 0.00 in   Overcast
9:07 AM 68.0 °F 64.4 °F 88% 30.14 in 7.0 mi Calm Calm - 0.00 in Rain Light Rain
9:19 AM 68.0 °F 64.4 °F 88% 30.14 in 9.0 mi SSW 3.5 mph - 0.01 in Rain Light Rain
9:53 AM 68.0 °F 64.9 °F 90% 30.12 in 10.0 mi SSW 5.8 mph - 0.01 in   Overcast
10:12 AM 69.8 °F 66.2 °F 88% 30.13 in 10.0 mi SW 4.6 mph - N/A   Overcast
10:53 AM 70.0 °F 64.0 °F 81% 30.11 in 10.0 mi SW 4.6 mph - N/A   Overcast
11:53 AM 72.0 °F 64.9 °F 78% 30.10 in 10.0 mi SSW 6.9 mph - N/A   Overcast
12:00 PM 71.6 °F 64.4 °F 78% 30.13 in 10.0 mi SSW 4.6 mph - N/A   Overcast
12:53 PM 73.9 °F 64.9 °F 73% 30.10 in 10.0 mi South 4.6 mph - N/A   Overcast
1:53 PM 75.0 °F 64.0 °F 69% 30.08 in 10.0 mi Calm Calm - N/A   Mostly Cloudy
2:02 PM 75.2 °F 64.4 °F 69% 30.10 in 10.0 mi SW 4.6 mph - N/A   Mostly Cloudy
2:20 PM 75.2 °F 64.4 °F 69% 30.09 in 10.0 mi West 3.5 mph - N/A   Mostly Cloudy
3:04 PM 75.2 °F 64.4 °F 69% 30.09 in 10.0 mi SSW 8.1 mph - N/A   Mostly Cloudy
3:18 PM 75.2 °F 62.6 °F 65% 30.09 in 10.0 mi SSW 8.1 mph - N/A   Scattered Clouds
3:53 PM 75.9 °F 64.0 °F 67% 30.06 in 10.0 mi SSW 6.9 mph - N/A   Partly Cloudy
4:53 PM 73.9 °F 63.0 °F 68% 30.04 in 10.0 mi SSW 8.1 mph - N/A   Mostly Cloudy
5:53 PM 73.9 °F 63.0 °F 68% 30.03 in 10.0 mi SSW 5.8 mph - N/A   Clear
6:53 PM 73.9 °F 64.0 °F 71% 30.02 in 10.0 mi South 9.2 mph - N/A   Clear
7:37 PM 71.6 °F 64.4 °F 78% 30.06 in 10.0 mi Calm Calm - N/A   Mostly Cloudy
7:53 PM 73.0 °F 64.0 °F 73% 30.04 in 10.0 mi South 3.5 mph - N/A   Mostly Cloudy
8:04 PM 71.6 °F 64.4 °F 78% 30.07 in 10.0 mi SW 3.5 mph - N/A   Mostly Cloudy
8:53 PM 72.0 °F 64.0 °F 76% 30.05 in 10.0 mi WSW 4.6 mph - N/A   Overcast
9:05 PM 71.6 °F 64.4 °F 78% 30.07 in 10.0 mi West 6.9 mph - N/A   Overcast
9:17 PM 71.6 °F 64.4 °F 78% 30.07 in 10.0 mi WSW 5.8 mph - N/A   Overcast
9:53 PM 71.1 °F 64.9 °F 81% 30.06 in 10.0 mi Calm Calm - N/A   Partly Cloudy
10:53 PM 69.1 °F 64.0 °F 84% 30.07 in 10.0 mi Calm Calm - N/A   Clear